Terug naar catalogus

STARLINK-11455

ActiefCommunicatieVLEO
NORAD 62463·PAYLOAD·🇺🇸 United States

Gelanceerd Dec 31, 2024 vanaf Cape Canaveral Space Force Station

Loading…

Volgende Passages (komende 24 uur)

TLE

VersSource: CelesTrak SupGP

Epoch: Sep 15, 2026, 02:11 UTC

1 62463C 24254B   26258.09145833 -.00023092  00000+0 -17939-3 0  2581
2 62463  43.0004 161.7948 0001519 275.3112 100.0484 15.70845611    13

Volg STARLINK-11455 in realtime met AllMySat

Download on the App Store